Location: Firdgum
(53.2488°N, 5.5615°E)
Time: 10:58:07
(UTC+00:00)

SJ-12 - Pass Details

Date: 08 December 2019
Orbit: 568 x 586 km, 97.6° (Epoch: 21 January)

Event Time Altitude Azimuth Distance (km) Brightness Sun altitude
Rises 05:47:44 0° 9° (N) 2,825 7.4 -15.4°
Reaches altitude 10° 05:50:00 10° 1° (N) 1,918 6.4 -15.0°
Maximum altitude 05:53:52 39° 293° (WNW) 887 4.3 -14.5°
Drops below altitude 10° 05:57:41 10° 225° (SW) 1,895 6.3 -14.0°
Sets 05:59:55 0° 217° (SW) 2,786 7.2 -13.6°
